World > North America > United States > New York

Hourly Sheldon, NY Regional Weather

Feedback E-mail the Weather

Latest News

Sheldon, NY Weather Maps

°F °C°F °C
Sheldon Weather Map
UTC Time: 5/26/2022, 08:37
Your Time:

Sheldon, NY Regional Weather

Expires:202205260900;;599240
ASUS41 KALY 260810
RWRALY

NEW YORK STATE HOURLY WEATHER ROUNDUP
NATIONAL WEATHER SERVICE ALBANY NY
400 AM EDT THU MAY 26 2022

NOTE: "FAIR" INDICATES FEW OR NO CLOUDS BELOW 12,000 FEET WITH NO
SIGNIFICANT WEATHER AND/OR NO OBSTRUCTIONS TO VISIBILITY.


NYZ001>004-010>016-019>021-085-260900-
WEST

  
CITY           SKY/WX    TMP DP  RH WIND       PRES   REMARKS
NIAGARA FALLS  MOCLDY    64  53  67 S10       30.01F                  
BUFFALO        MOCLDY    64  52  64 S7        30.03F                  
DUNKIRK        PTCLDY    66  53  63 S24G36    30.00F                  
JAMESTOWN      PTCLDY    58  52  80 S13G21    30.10F                  
WELLSVILLE     LGT RAIN  58  46  64 S12G23    30.17S                  
ROCHESTER      MOCLDY    65  50  58 S10       30.07F                  
PENN YAN       PTCLDY    63  44  50 S15G23    30.12S                  
$$

             KEY
       WCI = WIND CHILL INDEX
       VSB = VISIBILITY
       HX  = HEAT INDEX
$$
  

SKY/WX - Weather  TMP - Temperature  DP - Dew Point  RH - Humidity
WIND - Wind Direction/Speed PRES - Barometric Pressure VSB - Visibility
WCI - Wind Chill Index E13G22 Wind - East Wind 13 mph/Gusts of 22 mph

Trending Headlines

Sheldon Radar Loop



Sheldon Quick Facts


National Two Day Weather Forecast


E-mail the Sheldon Weather Forecast

Voice your opinion or tell us about page issues...